| time (UTC) | temp F | wind direction | speed MPH | gust MPH | rain 1hr in | rain 24hr in | rain mn in | humidity % | barometer mb |
| 20260503024509 | 57 | 98 | 1.0 | 1.0 | 0.00 | 0.00 | 0.00 | 42 | 1016.1 |
| 20260503024006 | 57 | 128 | 1.0 | 1.0 | 0.00 | 0.00 | 0.00 | 42 | 1016.1 |
| 20260503023503 | 59 | 116 | 0.0 | 0.0 | 0.00 | 0.00 | 0.00 | 41 | 1016.2 |
| 20260503023000 | 60 | 74 | 2.0 | 2.0 | 0.00 | 0.00 | 0.00 | 40 | 1016.0 |
| 20260503022455 | 59 | 89 | 1.0 | 1.0 | 0.00 | 0.00 | 0.00 | 40 | 1016.1 |
| 20260503021951 | 60 | 73 | 1.0 | 1.0 | 0.00 | 0.00 | 0.00 | 40 | 1016.0 |
| 20260503021447 | 60 | 73 | 2.0 | 2.0 | 0.00 | 0.00 | 0.00 | 39 | 1016.0 |
| 20260503020945 | 60 | 103 | 0.0 | 0.0 | 0.00 | 0.00 | 0.00 | 39 | 1015.9 |
| 20260503020442 | 61 | 101 | 1.0 | 1.0 | 0.00 | 0.00 | 0.00 | 39 | 1015.9 |
| 20260503015939 | 62 | 97 | 1.0 | 1.0 | 0.00 | 0.00 | 0.00 | 39 | 1016.0 |
| 20260503015436 | 62 | 88 | 2.0 | 2.0 | 0.00 | 0.00 | 0.00 | 38 | 1016.0 |
| 20260503014932 | 62 | 94 | 1.0 | 2.0 | 0.00 | 0.00 | 0.00 | 38 | 1016.0 |
| 20260503014429 | 63 | 84 | 1.0 | 2.0 | 0.00 | 0.00 | 0.00 | 38 | 1016.0 |
| 20260503013927 | 63 | 8 | 1.0 | 2.0 | 0.00 | 0.00 | 0.00 | 37 | 1016.0 |
| 20260503013424 | 64 | 115 | 0.0 | 0.0 | 0.00 | 0.00 | 0.00 | 36 | 1016.1 |
| 20260503012921 | 64 | 61 | 1.0 | 2.0 | 0.00 | 0.00 | 0.00 | 36 | 1015.9 |
| 20260503012419 | 64 | 129 | 0.0 | 0.0 | 0.00 | 0.00 | 0.00 | 36 | 1016.0 |
| 20260503011915 | 64 | 180 | 1.0 | 2.0 | 0.00 | 0.00 | 0.00 | 35 | 1016.0 |
| 20260503011412 | 64 | 188 | 1.0 | 1.0 | 0.00 | 0.00 | 0.00 | 37 | 1016.1 |
| 20260503010909 | 65 | 248 | 1.0 | 1.0 | 0.00 | 0.00 | 0.00 | 36 | 1016.0 |
| 20260503010405 | 66 | 209 | 1.0 | 2.0 | 0.00 | 0.00 | 0.00 | 36 | 1016.0 |
| 20260503005902 | 66 | 140 | 3.0 | 3.0 | 0.00 | 0.00 | 0.00 | 35 | 1016.1 |
| 20260503005400 | 66 | 6 | 2.0 | 3.0 | 0.00 | 0.00 | 0.00 | 34 | 1016.3 |
| 20260503004856 | 67 | 53 | 2.0 | 2.0 | 0.00 | 0.00 | 0.00 | 33 | 1016.4 |
| 20260503004353 | 66 | 338 | 0.0 | 1.0 | 0.00 | 0.00 | 0.00 | 34 | 1016.3 |
| 20260503003851 | 65 | 45 | 0.0 | 0.0 | 0.00 | 0.00 | 0.00 | 35 | 1016.4 |
| 20260503003347 | 65 | 45 | 0.0 | 1.0 | 0.00 | 0.00 | 0.00 | 35 | 1016.3 |
| 20260503002844 | 66 | 282 | 1.0 | 1.0 | 0.00 | 0.00 | 0.00 | 35 | 1016.4 |
| 20260503002342 | 65 | 290 | 2.0 | 2.0 | 0.00 | 0.00 | 0.00 | 36 | 1016.5 |
| 20260503001838 | 64 | 24 | 0.0 | 0.0 | 0.00 | 0.00 | 0.00 | 37 | 1016.6 |
| 20260503001334 | 65 | 236 | 0.0 | 1.0 | 0.00 | 0.00 | 0.00 | 36 | 1016.5 |
| 20260503000832 | 65 | 243 | 2.0 | 2.0 | 0.00 | 0.00 | 0.00 | 37 | 1016.7 |
| 20260503000329 | 65 | 343 | 2.0 | 2.0 | 0.00 | 0.00 | 0.00 | 36 | 1016.5 |
| 20260502235826 | 64 | 6 | 4.0 | 4.0 | 0.00 | 0.00 | 0.00 | 37 | 1016.6 |
| 20260502235323 | 64 | 7 | 3.0 | 4.0 | 0.00 | 0.00 | 0.00 | 36 | 1016.9 |
| 20260502234820 | 64 | 337 | 4.0 | 4.0 | 0.00 | 0.00 | 0.00 | 36 | 1016.7 |
| 20260502234317 | 65 | 348 | 3.0 | 4.0 | 0.00 | 0.00 | 0.00 | 36 | 1016.7 |
| 20260502233814 | 65 | 22 | 4.0 | 4.0 | 0.00 | 0.00 | 0.00 | 36 | 1016.7 |
| 20260502233310 | 65 | 68 | 2.0 | 3.0 | 0.00 | 0.00 | 0.00 | 37 | 1017.2 |
| 20260502232807 | 66 | 49 | 1.0 | 1.0 | 0.00 | 0.00 | 0.00 | 35 | 1017.0 |
| 20260502232304 | 66 | 217 | 2.0 | 3.0 | 0.00 | 0.00 | 0.00 | 37 | 1017.1 |
| 20260502231800 | 66 | 128 | 4.0 | 4.0 | 0.00 | 0.00 | 0.00 | 36 | 1017.1 |
| 20260502231258 | 66 | 181 | 4.0 | 4.0 | 0.00 | 0.00 | 0.00 | 36 | 1017.2 |
| 20260502230756 | 65 | 196 | 1.0 | 1.0 | 0.00 | 0.00 | 0.00 | 37 | 1017.3 |
| 20260502230254 | 65 | 149 | 2.0 | 3.0 | 0.00 | 0.00 | 0.00 | 36 | 1017.7 |
| 20260502225750 | 66 | 232 | 2.0 | 2.0 | 0.00 | 0.00 | 0.00 | 35 | 1017.3 |
| 20260502225247 | 65 | 342 | 1.0 | 2.0 | 0.00 | 0.00 | 0.00 | 36 | 1017.6 |
| 20260502224743 | 65 | 334 | 2.0 | 3.0 | 0.00 | 0.00 | 0.00 | 37 | 1017.5 |
| 20260502224240 | 65 | 2 | 2.0 | 2.0 | 0.00 | 0.00 | 0.00 | 37 | 1017.6 |
| 20260502223737 | 65 | 1 | 2.0 | 3.0 | 0.00 | 0.00 | 0.00 | 37 | 1017.7 |
| 20260502223235 | 64 | 72 | 2.0 | 3.0 | 0.00 | 0.00 | 0.00 | 37 | 1017.6 |
| 20260502222733 | 64 | 40 | 5.0 | 6.0 | 0.00 | 0.00 | 0.00 | 37 | 1017.7 |
| 20260502222229 | 64 | 27 | 3.0 | 3.0 | 0.00 | 0.00 | 0.00 | 38 | 1017.8 |
| 20260502221725 | 64 | 123 | 3.0 | 3.0 | 0.00 | 0.00 | 0.00 | 39 | 1017.7 |
| 20260502221222 | 63 | 65 | 3.0 | 4.0 | 0.00 | 0.00 | 0.00 | 38 | 1018.0 |
| 20260502220718 | 63 | 4 | 4.0 | 4.0 | 0.00 | 0.00 | 0.00 | 39 | 1018.2 |
| 20260502220215 | 64 | 45 | 1.0 | 1.0 | 0.00 | 0.00 | 0.00 | 38 | 1018.2 |
| 20260502215712 | 63 | 141 | 3.0 | 3.0 | 0.00 | 0.00 | 0.00 | 38 | 1018.2 |
| 20260502215209 | 64 | 55 | 1.0 | 1.0 | 0.00 | 0.00 | 0.00 | 37 | 1018.3 |
| 20260502214706 | 65 | 103 | 2.0 | 2.0 | 0.00 | 0.00 | 0.00 | 37 | 1018.2 |
| 20260502214203 | 64 | 342 | 2.0 | 3.0 | 0.00 | 0.00 | 0.00 | 38 | 1018.6 |
| 20260502213700 | 64 | 20 | 2.0 | 2.0 | 0.00 | 0.00 | 0.00 | 38 | 1018.5 |
| 20260502213157 | 62 | 110 | 0.0 | 0.0 | 0.00 | 0.00 | 0.00 | 39 | 1018.4 |
| 20260502212656 | 63 | 104 | 3.0 | 3.0 | 0.00 | 0.00 | 0.00 | 39 | 1018.7 |
| 20260502212154 | 63 | 243 | 0.0 | 0.0 | 0.00 | 0.00 | 0.00 | 40 | 1018.6 |
| 20260502211649 | 63 | 210 | 0.0 | 1.0 | 0.00 | 0.00 | 0.00 | 39 | 1018.6 |
| 20260502211147 | 63 | 273 | 1.0 | 1.0 | 0.00 | 0.00 | 0.00 | 39 | 1018.6 |
| 20260502210644 | 62 | 146 | 2.0 | 2.0 | 0.00 | 0.00 | 0.00 | 40 | 1019.0 |
| 20260502210141 | 63 | 143 | 3.0 | 3.0 | 0.00 | 0.00 | 0.00 | 40 | 1018.8 |
| 20260502205637 | 63 | 206 | 2.0 | 2.0 | 0.00 | 0.00 | 0.00 | 41 | 1019.0 |
| 20260502205134 | 62 | 163 | 4.0 | 4.0 | 0.00 | 0.00 | 0.00 | 41 | 1019.0 |
| 20260502204631 | 62 | 176 | 2.0 | 2.0 | 0.00 | 0.00 | 0.00 | 41 | 1019.0 |
| 20260502204129 | 62 | 130 | 2.0 | 3.0 | 0.00 | 0.00 | 0.00 | 40 | 1019.2 |
| 20260502203626 | 63 | 93 | 3.0 | 4.0 | 0.00 | 0.00 | 0.00 | 41 | 1019.2 |
| 20260502203125 | 63 | 69 | 4.0 | 6.0 | 0.00 | 0.00 | 0.00 | 40 | 1019.3 |
| 20260502202624 | 62 | 279 | 4.0 | 4.0 | 0.00 | 0.00 | 0.00 | 41 | 1019.0 |
| 20260502202123 | 62 | 46 | 4.0 | 4.0 | 0.00 | 0.00 | 0.00 | 40 | 1019.1 |
| 20260502201619 | 63 | 57 | 4.0 | 6.0 | 0.00 | 0.00 | 0.00 | 39 | 1019.1 |
| 20260502201116 | 63 | 79 | 8.0 | 9.0 | 0.00 | 0.00 | 0.00 | 40 | 1019.1 |
| 20260502200611 | 64 | 350 | 5.0 | 6.0 | 0.00 | 0.00 | 0.00 | 39 | 1019.1 |
| 20260502200109 | 63 | 117 | 2.0 | 2.0 | 0.00 | 0.00 | 0.00 | 40 | 1019.4 |
| 20260502195608 | 64 | 52 | 7.0 | 9.0 | 0.00 | 0.00 | 0.00 | 39 | 1019.4 |
| 20260502195102 | 62 | 98 | 6.0 | 7.0 | 0.00 | 0.00 | 0.00 | 42 | 1019.3 |
| 20260502194600 | 62 | 39 | 6.0 | 8.0 | 0.00 | 0.00 | 0.00 | 41 | 1019.4 |
| 20260502194055 | 62 | 66 | 6.0 | 7.0 | 0.00 | 0.00 | 0.00 | 42 | 1019.4 |
| 20260502193553 | 62 | 82 | 5.0 | 7.0 | 0.00 | 0.00 | 0.00 | 42 | 1019.7 |
| 20260502193050 | 61 | 58 | 4.0 | 4.0 | 0.00 | 0.00 | 0.00 | 43 | 1019.6 |
| 20260502192545 | 60 | 80 | 8.0 | 9.0 | 0.00 | 0.00 | 0.00 | 43 | 1019.7 |
| 20260502192043 | 60 | 76 | 5.0 | 7.0 | 0.00 | 0.00 | 0.00 | 44 | 1019.9 |
| 20260502191540 | 60 | 59 | 4.0 | 4.0 | 0.00 | 0.00 | 0.00 | 44 | 1019.8 |
| 20260502191038 | 61 | 17 | 6.0 | 7.0 | 0.00 | 0.00 | 0.00 | 43 | 1019.9 |
| 20260502190535 | 61 | 286 | 2.0 | 2.0 | 0.00 | 0.00 | 0.00 | 41 | 1020.2 |
| 20260502190032 | 61 | 109 | 0.0 | 0.0 | 0.00 | 0.00 | 0.00 | 41 | 1019.7 |
| 20260502185526 | 61 | 69 | 1.0 | 1.0 | 0.00 | 0.00 | 0.00 | 41 | 1019.8 |
| 20260502185024 | 61 | 20 | 1.0 | 1.0 | 0.00 | 0.00 | 0.00 | 41 | 1020.1 |
| 20260502184519 | 61 | 344 | 2.0 | 3.0 | 0.00 | 0.00 | 0.00 | 41 | 1019.9 |
| 20260502184016 | 62 | 327 | 2.0 | 3.0 | 0.00 | 0.00 | 0.00 | 40 | 1020.1 |
| 20260502183512 | 62 | 217 | 4.0 | 4.0 | 0.00 | 0.00 | 0.00 | 40 | 1019.9 |
| 20260502183008 | 62 | 246 | 2.0 | 2.0 | 0.00 | 0.00 | 0.00 | 41 | 1019.8 |
| 20260502182503 | 63 | 200 | 2.0 | 3.0 | 0.00 | 0.00 | 0.00 | 42 | 1019.9 |
| 20260502181959 | 64 | 253 | 1.0 | 2.0 | 0.00 | 0.00 | 0.00 | 39 | 1020.1 |
| 20260502181457 | 63 | 354 | 4.0 | 6.0 | 0.00 | 0.00 | 0.00 | 39 | 1019.9 |
| 20260502180956 | 62 | 346 | 4.0 | 4.0 | 0.00 | 0.00 | 0.00 | 40 | 1019.9 |
| 20260502180453 | 62 | 303 | 6.0 | 8.0 | 0.00 | 0.00 | 0.00 | 41 | 1020.1 |
| 20260502170412 | 61 | 329 | 5.0 | 7.0 | 0.00 | 0.00 | 0.00 | 43 | 1020.3 |
| 20260502163855 | 60 | 276 | 3.0 | 3.0 | 0.00 | 0.00 | 0.00 | 43 | 1020.3 |
| 20260502163351 | 60 | 19 | 1.0 | 2.0 | 0.00 | 0.00 | 0.00 | 42 | 1020.2 |
| 20260502162849 | 60 | 16 | 4.0 | 7.0 | 0.00 | 0.00 | 0.00 | 43 | 1020.1 |
| 20260502162345 | 61 | 322 | 2.0 | 3.0 | 0.00 | 0.00 | 0.00 | 43 | 1020.2 |
| 20260502161843 | 60 | 332 | 7.0 | 9.0 | 0.00 | 0.00 | 0.00 | 43 | 1020.1 |
| 20260502161338 | 60 | 333 | 7.0 | 8.0 | 0.00 | 0.00 | 0.00 | 42 | 1020.1 |
| 20260502160837 | 61 | 327 | 5.0 | 7.0 | 0.00 | 0.00 | 0.00 | 42 | 1020.1 |
| 20260502160335 | 61 | 293 | 1.0 | 1.0 | 0.00 | 0.00 | 0.00 | 42 | 1020.2 |
| 20260502152310 | 59 | 50 | 3.0 | 3.0 | 0.00 | 0.00 | 0.00 | 42 | 1020.4 |
| 20260502151808 | 58 | 50 | 6.0 | 7.0 | 0.00 | 0.00 | 0.00 | 43 | 1020.2 |
| 20260502151304 | 58 | 43 | 3.0 | 4.0 | 0.00 | 0.00 | 0.00 | 43 | 1020.2 |
| 20260502150802 | 57 | 61 | 9.0 | 10.0 | 0.00 | 0.00 | 0.00 | 44 | 1020.2 |
| 20260502150258 | 58 | 73 | 3.0 | 4.0 | 0.00 | 0.00 | 0.00 | 43 | 1020.1 |
| 20260502130647 | 51 | 13 | 3.0 | 4.0 | 0.00 | 0.00 | 0.00 | 51 | 1019.2 |
| 20260502130144 | 51 | 28 | 3.0 | 3.0 | 0.00 | 0.00 | 0.00 | 51 | 1019.2 |
| 20260502123630 | 50 | 38 | 9.0 | 10.0 | 0.00 | 0.00 | 0.00 | 52 | 1019.0 |
| 20260502123126 | 50 | 23 | 9.0 | 11.0 | 0.00 | 0.00 | 0.00 | 51 | 1018.7 |
| 20260502122623 | 50 | 26 | 6.0 | 8.0 | 0.00 | 0.00 | 0.00 | 52 | 1018.6 |
| 20260502122120 | 49 | 63 | 8.0 | 11.0 | 0.00 | 0.00 | 0.00 | 52 | 1018.8 |
| 20260502121618 | 49 | 51 | 9.0 | 11.0 | 0.00 | 0.00 | 0.00 | 53 | 1018.7 |
| 20260502121115 | 49 | 33 | 9.0 | 10.0 | 0.00 | 0.00 | 0.00 | 53 | 1018.6 |
| 20260502120611 | 49 | 17 | 6.0 | 8.0 | 0.00 | 0.00 | 0.00 | 52 | 1018.5 |
| 20260502120108 | 49 | 27 | 6.0 | 7.0 | 0.00 | 0.00 | 0.00 | 52 | 1018.6 |
| 20260502115607 | 50 | 53 | 4.0 | 4.0 | 0.00 | 0.00 | 0.00 | 52 | 1018.4 |
| 20260502115108 | 49 | 50 | 5.0 | 8.0 | 0.00 | 0.00 | 0.00 | 52 | 1018.3 |
| 20260502114604 | 50 | 63 | 5.0 | 7.0 | 0.00 | 0.00 | 0.00 | 51 | 1018.3 |
| 20260502114101 | 50 | 72 | 10.0 | 16.0 | 0.00 | 0.00 | 0.00 | 51 | 1018.3 |
| 20260502113559 | 50 | 50 | 8.0 | 13.0 | 0.00 | 0.00 | 0.00 | 51 | 1018.2 |
| 20260502113057 | 50 | 23 | 8.0 | 9.0 | 0.00 | 0.00 | 0.00 | 50 | 1018.2 |
| 20260502112555 | 50 | 25 | 10.0 | 13.0 | 0.00 | 0.00 | 0.00 | 50 | 1018.1 |
| 20260502112052 | 50 | 53 | 10.0 | 13.0 | 0.00 | 0.00 | 0.00 | 49 | 1018.0 |
| 20260502111549 | 51 | 30 | 10.0 | 13.0 | 0.00 | 0.00 | 0.00 | 49 | 1018.1 |
| 20260502111047 | 51 | 14 | 13.0 | 14.0 | 0.00 | 0.00 | 0.00 | 48 | 1018.1 |
| 20260502110544 | 51 | 44 | 8.0 | 9.0 | 0.00 | 0.00 | 0.00 | 48 | 1017.6 |
| 20260502110042 | 51 | 40 | 8.0 | 9.0 | 0.00 | 0.00 | 0.00 | 48 | 1017.5 |
| 20260502105539 | 51 | 13 | 7.0 | 10.0 | 0.00 | 0.00 | 0.00 | 48 | 1017.4 |
| 20260502105036 | 51 | 54 | 8.0 | 10.0 | 0.00 | 0.00 | 0.00 | 47 | 1017.5 |
| 20260502104533 | 51 | 69 | 5.0 | 7.0 | 0.00 | 0.00 | 0.00 | 47 | 1017.5 |
| 20260502104031 | 51 | 20 | 6.0 | 9.0 | 0.00 | 0.00 | 0.00 | 47 | 1017.1 |
| 20260502103528 | 52 | 53 | 6.0 | 7.0 | 0.00 | 0.00 | 0.00 | 46 | 1017.2 |
| 20260502103026 | 52 | 40 | 8.0 | 9.0 | 0.00 | 0.00 | 0.00 | 46 | 1017.2 |
| 20260502102522 | 52 | 39 | 7.0 | 9.0 | 0.00 | 0.00 | 0.00 | 45 | 1017.0 |
| 20260502102019 | 52 | 24 | 6.0 | 7.0 | 0.00 | 0.00 | 0.00 | 45 | 1016.7 |
| 20260502101517 | 52 | 41 | 9.0 | 11.0 | 0.00 | 0.00 | 0.00 | 44 | 1016.9 |
| 20260502101015 | 51 | 23 | 9.0 | 10.0 | 0.00 | 0.00 | 0.00 | 44 | 1017.0 |
| 20260502100514 | 50 | 32 | 8.0 | 9.0 | 0.00 | 0.00 | 0.00 | 45 | 1016.7 |
| 20260502091448 | 48 | 9 | 3.0 | 3.0 | 0.00 | 0.00 | 0.00 | 45 | 1016.7 |
| 20260502090945 | 48 | 0 | 2.0 | 2.0 | 0.00 | 0.00 | 0.00 | 46 | 1016.4 |
| 20260502090442 | 48 | 346 | 2.0 | 2.0 | 0.00 | 0.00 | 0.00 | 45 | 1016.7 |
| 20260502071337 | 48 | 335 | 4.0 | 4.0 | 0.00 | 0.00 | 0.00 | 43 | 1016.1 |
| 20260502070835 | 46 | 331 | 3.0 | 4.0 | 0.00 | 0.00 | 0.00 | 45 | 1016.3 |
| 20260502070332 | 46 | 354 | 1.0 | 1.0 | 0.00 | 0.00 | 0.00 | 46 | 1016.2 |
| 20260502065831 | 46 | 353 | 2.0 | 2.0 | 0.00 | 0.00 | 0.00 | 44 | 1016.0 |
| 20260502065329 | 47 | 352 | 2.0 | 2.0 | 0.00 | 0.00 | 0.00 | 44 | 1016.2 |
| 20260502064826 | 48 | 323 | 3.0 | 3.0 | 0.00 | 0.00 | 0.00 | 42 | 1016.3 |
| 20260502064324 | 49 | 326 | 2.0 | 3.0 | 0.00 | 0.00 | 0.00 | 42 | 1016.1 |
| 20260502063821 | 48 | 345 | 4.0 | 4.0 | 0.00 | 0.00 | 0.00 | 42 | 1016.0 |
| 20260502063319 | 48 | 327 | 2.0 | 2.0 | 0.00 | 0.00 | 0.00 | 42 | 1016.2 |
| 20260502062816 | 48 | 346 | 2.0 | 3.0 | 0.00 | 0.00 | 0.00 | 41 | 1016.0 |
| 20260502062313 | 49 | 284 | 2.0 | 2.0 | 0.00 | 0.00 | 0.00 | 41 | 1016.1 |
| 20260502061812 | 49 | 334 | 2.0 | 2.0 | 0.00 | 0.00 | 0.00 | 40 | 1016.3 |
| 20260502061309 | 49 | 338 | 4.0 | 4.0 | 0.00 | 0.00 | 0.00 | 40 | 1016.2 |
| 20260502060805 | 48 | 344 | 4.0 | 4.0 | 0.00 | 0.00 | 0.00 | 41 | 1016.2 |
| 20260502060300 | 49 | 333 | 3.0 | 3.0 | 0.00 | 0.00 | 0.00 | 40 | 1016.3 |
| 20260502055758 | 53 | 304 | 3.0 | 3.0 | 0.00 | 0.00 | 0.00 | 37 | 1016.2 |
| 20260502055256 | 53 | 335 | 5.0 | 7.0 | 0.00 | 0.00 | 0.00 | 36 | 1016.1 |
| 20260502054755 | 48 | 346 | 3.0 | 4.0 | 0.00 | 0.00 | 0.00 | 40 | 1016.1 |
| 20260502054252 | 47 | 306 | 2.0 | 2.0 | 0.00 | 0.00 | 0.00 | 40 | 1016.1 |
| 20260502053750 | 46 | 338 | 2.0 | 2.0 | 0.00 | 0.00 | 0.00 | 40 | 1016.2 |
| 20260502053247 | 45 | 354 | 2.0 | 2.0 | 0.00 | 0.00 | 0.00 | 40 | 1016.4 |
| 20260502052744 | 46 | 358 | 2.0 | 2.0 | 0.00 | 0.00 | 0.00 | 40 | 1016.1 |
| 20260502052243 | 47 | 347 | 5.0 | 7.0 | 0.00 | 0.00 | 0.00 | 38 | 1016.1 |
| 20260502051740 | 48 | 337 | 6.0 | 7.0 | 0.00 | 0.00 | 0.00 | 38 | 1016.5 |
| 20260502051238 | 48 | 339 | 6.0 | 7.0 | 0.00 | 0.00 | 0.00 | 37 | 1016.1 |
| 20260502050734 | 50 | 349 | 4.0 | 6.0 | 0.00 | 0.00 | 0.00 | 36 | 1016.2 |
| 20260502050230 | 51 | 350 | 6.0 | 7.0 | 0.00 | 0.00 | 0.00 | 35 | 1016.3 |
| 20260502045728 | 53 | 2 | 6.0 | 7.0 | 0.00 | 0.00 | 0.00 | 33 | 1016.2 |
| 20260502045225 | 54 | 314 | 7.0 | 9.0 | 0.00 | 0.00 | 0.00 | 32 | 1016.0 |
| 20260502044722 | 54 | 319 | 6.0 | 8.0 | 0.00 | 0.00 | 0.00 | 32 | 1016.4 |
| 20260502044218 | 55 | 323 | 6.0 | 8.0 | 0.00 | 0.00 | 0.00 | 31 | 1016.1 |
| 20260502043715 | 55 | 321 | 6.0 | 8.0 | 0.00 | 0.00 | 0.00 | 32 | 1016.1 |
| 20260502043213 | 55 | 340 | 5.0 | 6.0 | 0.00 | 0.00 | 0.00 | 31 | 1016.2 |
| 20260502042712 | 56 | 338 | 6.0 | 7.0 | 0.00 | 0.00 | 0.00 | 31 | 1016.1 |
| 20260502042209 | 57 | 312 | 5.0 | 6.0 | 0.00 | 0.00 | 0.00 | 31 | 1016.3 |
| 20260502041707 | 58 | 306 | 6.0 | 8.0 | 0.00 | 0.00 | 0.00 | 30 | 1016.2 |
| 20260502041204 | 60 | 316 | 5.0 | 7.0 | 0.00 | 0.00 | 0.00 | 29 | 1016.2 |
| 20260502040701 | 61 | 294 | 9.0 | 11.0 | 0.00 | 0.00 | 0.00 | 28 | 1015.9 |
| 20260502040158 | 61 | 322 | 8.0 | 10.0 | 0.00 | 0.00 | 0.00 | 28 | 1016.1 |
| 20260502035654 | 61 | 283 | 7.0 | 10.0 | 0.00 | 0.00 | 0.00 | 27 | 1016.0 |
| 20260502035151 | 61 | 303 | 8.0 | 9.0 | 0.00 | 0.00 | 0.00 | 27 | 1015.9 |
| 20260502034649 | 61 | 317 | 5.0 | 7.0 | 0.00 | 0.00 | 0.00 | 27 | 1015.9 |
| 20260502034147 | 60 | 297 | 5.0 | 7.0 | 0.00 | 0.00 | 0.00 | 27 | 1015.7 |
| 20260502033644 | 58 | 291 | 4.0 | 6.0 | 0.00 | 0.00 | 0.00 | 28 | 1016.0 |
| 20260502033142 | 57 | 316 | 5.0 | 7.0 | 0.00 | 0.00 | 0.00 | 28 | 1015.6 |
| 20260502032638 | 57 | 291 | 4.0 | 6.0 | 0.00 | 0.00 | 0.00 | 28 | 1016.0 |
| 20260502032134 | 56 | 304 | 3.0 | 4.0 | 0.00 | 0.00 | 0.00 | 29 | 1015.9 |
| 20260502031632 | 57 | 263 | 2.0 | 2.0 | 0.00 | 0.00 | 0.00 | 28 | 1015.9 |
| 20260502031130 | 58 | 273 | 4.0 | 4.0 | 0.00 | 0.00 | 0.00 | 27 | 1015.7 |
| 20260502030629 | 59 | 285 | 5.0 | 7.0 | 0.00 | 0.00 | 0.00 | 27 | 1015.7 |
| 20260502030126 | 59 | 271 | 4.0 | 4.0 | 0.00 | 0.00 | 0.00 | 26 | 1015.6 |
| 20260502025623 | 60 | 275 | 4.0 | 6.0 | 0.00 | 0.00 | 0.00 | 25 | 1015.7 |
| 20260502025121 | 62 | 308 | 3.0 | 4.0 | 0.00 | 0.00 | 0.00 | 25 | 1015.4 |